Temp
73 79 83 82 69 68 63 65 69 67 67 71 71 72 72 70 69 64 72 73 73 74 75 75 69 70 71 71 71 71 71 72 72 73 74 75 76 76 76 76 74 74 76 76 76 75 75 74 73
78 77 82 78 66 61 67 68 65 71 70 70 69 68 68 69 67 67 70 71 72 73 74 74 67 69 69 69 69 69 70 70 71 71 72 72 74 75 75 75 75 74 76 76 76 76 76 74 74
75 77 77 72 66 62 65 66 69 68 69 68 68 67 69 68 67 71 72 71 72 72 72 71 66 67 68 68 68 68 68 69 69 70 71 71 71 72 73 73 74 74 75 77 77 77 75 74 74
78 79 75 66 63 66 66 69 70 67 67 69 69 67 66 70 69 73 71 71 71 70 71 69 64 65 66 66 67 67 67 68 68 68 69 69 70 70 69 71 72 74 74 76 77 76 75 74 73
79 76 65 61 63 65 68 69 70 68 69 68 67 68 65 67 71 71 71 71 71 71 70 69 62 63 64 64 65 65 65 66 66 66 66 67 68 68 69 69 70 72 73 75 75 75 74 73 73
72 73 63 60 64 65 67 70 69 68 69 67 65 65 67 70 68 69 70 70 70 69 67 68 61 60 61 62 62 63 64 64 64 65 65 65 65 66 67 68 69 70 73 73 74 74 72 72 72
69 66 62 61 63 62 66 68 67 69 68 68 68 65 67 66 70 70 70 70 68 69 68 68 67 64 60 60 60 61 62 62 62 62 63 63 62 63 64 65 67 69 70 73 73 72 71 72 71
72 68 58 61 62 62 65 65 65 66 68 67 70 66 66 70 69 69 69 69 69 67 67 67 66 66 65 64 61 59 60 60 60 60 60 60 60 60 62 63 65 65 69 71 72 71 71 71 70
66 63 60 61 58 63 64 62 65 66 66 65 67 67 67 69 67 66 66 67 67 67 66 67 66 66 65 64 64 60 60 59 59 60 59 59 63 65 65 64 62 64 66 68 71 70 70 69 67
65 61 63 64 65 63 64 63 65 62 63 63 65 66 64 64 65 64 65 67 66 66 65 66 66 65 64 65 64 62 62 63 62 62 62 62 63 64 62 59 58 61 62 63 68 69 68 65 67
62 62 63 64 64 62 62 60 65 63 62 68 67 69 64 63 64 65 66 67 67 66 66 65 64 64 63 63 63 63 63 62 62 61 61 61 62 62 63 64 65 67 61 67 68 68 64 63 63
59 62 62 62 60 59 59 63 61 63 68 67 70 68 66 63 64 65 65 65 65 64 64 63 64 63 63 63 63 63 61 62 61 61 61 60 60 61 61 63 64 66 66 68 68 63 61 61 63
59 61 60 62 59 59 59 59 60 62 68 68 64 62 64 65 66 66 65 64 63 62 63 64 63 62 62 61 62 61 60 61 61 60 60 60 60 60 61 61 63 62 63 67 65 61 60 61 61
61 59 60 59 59 58 55 59 55 65 63 65 62 63 65 65 65 65 63 63 61 61 62 62 62 62 61 60 59 59 60 61 61 61 60 59 58 58 60 61 61 62 61 61 61 61 60 59 62
57 56 59 58 57 56 55 54 53 66 60 61 61 63 63 64 64 64 65 62 62 61 60 60 60 61 59 59 59 59 60 60 60 60 60 58 57 56 58 60 60 62 60 60 61 60 60 59 64
55 54 55 56 55 56 54 58 63 61 61 62 63 62 61 63 63 65 63 61 60 59 58 59 59 59 58 58 58 59 61 60 59 57 55 55 55 56 56 58 60 61 58 60 59 59 56 57 62
54 55 53 55 55 54 53 57 64 59 59 63 64 63 61 62 62 63 62 60 59 57 57 58 58 58 57 57 58 59 60 58 57 57 55 55 55 55 57 58 60 58 54 60 59 58 57 57 62
51 52 51 51 54 51 52 52 61 65 62 62 66 65 62 60 62 63 61 59 58 57 57 57 58 57 56 57 57 58 58 57 58 56 55 55 54 55 58 59 59 54 54 59 58 56 58 58 58
53 51 50 54 52 48 53 53 57 63 62 60 62 63 62 61 64 60 59 58 57 56 56 56 55 55 55 53 52 52 50 55 55 54 55 55 54 55 58 59 54 55 53 59 58 56 57 56 56
50 48 49 53 50 48 52 50 58 57 56 57 58 58 58 59 57 56 56 57 54 54 55 55 54 54 51 51 51 50 50 54 56 54 55 55 55 56 59 59 52 53 56 59 57 58 55 54 57
48 46 43 47 50 47 47 53 55 54 52 54 54 54 53 55 56 54 54 56 55 54 54 53 53 53 53 52 51 51 55 56 55 56 57 55 57 58 59 59 53 54 56 58 58 58 56 54 56
46 50 47 45 47 44 48 39 40 52 53 52 54 52 52 52 56 55 54 54 54 53 52 53 53 52 52 52 50 49 50 49 52 55 59 56 56 59 59 58 57 58 57 59 58 57 57 57 54
49 49 47 45 46 44 43 39 47 49 51 54 53 52 52 53 54 53 53 53 52 52 53 53 53 52 50 51 49 49 54 53 54 54 56 58 60 59 57 56 55 58 59 60 59 57 56 58 56
48 47 45 44 45 36 36 40 46 51 51 52 52 51 51 51 53 53 53 52 52 52 52 53 52 51 50 50 50 50 52 51 52 51 52 56 57 57 57 59 61 63 61 60 59 58 57 56 56
46 45 39 36 34 39 37 38 47 54 55 54 55 53 52 51 51 51 50 51 51 50 51 52 51 50 51 49 49 50 49 50 50 49 50 52 56 57 57 59 58 59 62 63 60 57 57 57 56
44 46 44 34 36 42 36 37 53 53 53 54 53 56 53 51 51 51 51 51 51 50 50 50 50 50 50 50 49 51 48 48 50 51 50 49 51 53 59 57 58 60 60 63 63 61 56 56 54
43 40 45 38 28 35 47 49 55 51 52 51 53 51 52 52 51 51 51 51 51 51 51 49 50 49 48 48 49 51 48 48 48 51 51 50 49 50 54 59 55 56 56 59 60 58 58 55 55
46 48 39 40 32 32 43 42 51 51 52 53 52 52 54 54 52 51 51 51 52 52 51 50 50 48 47 47 50 50 47 48 49 49 49 50 50 50 50 51 51 51 51 51 52 54 56 55 55
41 41 41 44 41 38 37 48 56 55 55 56 56 55 55 53 53 52 52 52 52 51 51 51 51 51 48 47 49 50 48 50 47 48 48 48 52 50 50 50 50 50 49 48 48 48 50 49 49
45 45 46 43 34 37 36 47 53 54 53 52 54 55 55 55 54 54 52 51 50 50 51 51 52 52 50 48 47 47 49 49 47 47 49 48 49 50 50 50 51 51 50 49 48 46 47 47 45
MSLP
1014.20 1013.58 1013.06 1012.15 1011.55 1010.54 1009.36 1009.47 1010.06 1010.23 1010.97 1011.52 1011.93 1011.68 1011.62 1012.10 1012.39 1014.01 1015.37 1015.78 1016.05 1016.05 1016.07 1015.95 1016.29 1016.08 1015.94 1015.84 1015.70 1015.49 1015.23 1014.89 1014.64 1014.32 1014.01 1013.72 1013.67 1013.63 1013.58 1013.62 1013.70 1013.77 1013.84 1013.89 1014.05 1014.32 1014.57 1014.81 1015.11
1013.94 1013.34 1012.56 1011.63 1010.59 1009.66 1008.79 1009.58 1009.95 1010.38 1011.54 1012.23 1012.53 1012.60 1012.48 1012.51 1013.79 1014.63 1015.30 1015.96 1016.11 1016.21 1016.21 1016.15 1016.39 1016.20 1015.99 1015.83 1015.70 1015.53 1015.30 1015.03 1014.72 1014.47 1014.18 1013.98 1013.62 1013.47 1013.49 1013.50 1013.44 1013.54 1013.66 1013.74 1013.89 1014.08 1014.34 1014.71 1015.03
1013.73 1013.31 1011.84 1010.99 1010.29 1009.37 1008.99 1009.73 1010.18 1011.36 1012.18 1012.55 1012.86 1013.42 1013.13 1013.20 1014.31 1014.55 1015.48 1015.98 1016.18 1016.30 1016.39 1016.40 1016.49 1016.26 1016.13 1015.97 1015.73 1015.50 1015.26 1015.03 1014.80 1014.50 1014.22 1014.02 1013.82 1013.51 1013.39 1013.35 1013.32 1013.41 1013.48 1013.38 1013.54 1013.79 1014.20 1014.63 1015.00
1013.28 1012.66 1012.50 1011.09 1009.94 1010.03 1010.00 1010.27 1010.72 1011.47 1012.45 1012.77 1012.97 1012.99 1014.01 1014.42 1014.47 1014.95 1015.75 1016.04 1016.13 1016.36 1016.39 1016.51 1016.56 1016.37 1016.15 1015.93 1015.74 1015.49 1015.26 1014.98 1014.76 1014.51 1014.28 1013.98 1013.73 1013.53 1013.45 1013.11 1013.16 1013.14 1013.10 1013.22 1013.12 1013.47 1014.00 1014.46 1014.83
1013.24 1012.24 1011.38 1010.70 1010.09 1010.34 1010.47 1010.80 1011.20 1011.42 1011.83 1012.33 1013.10 1012.73 1013.65 1014.77 1015.18 1015.54 1015.75 1016.04 1016.11 1016.22 1016.38 1016.44 1016.72 1016.51 1016.32 1016.14 1015.86 1015.58 1015.27 1014.94 1014.73 1014.49 1014.28 1014.06 1013.81 1013.50 1013.21 1013.18 1012.87 1012.88 1012.91 1012.85 1013.06 1013.23 1013.68 1014.26 1014.71
1012.47 1012.28 1011.16 1010.11 1010.09 1010.58 1010.76 1011.17 1011.37 1011.50 1011.87 1012.46 1013.03 1013.16 1013.42 1014.54 1015.12 1015.46 1015.80 1016.01 1016.19 1016.26 1016.41 1016.40 1016.60 1016.52 1016.38 1016.18 1015.94 1015.64 1015.28 1014.94 1014.68 1014.37 1014.10 1013.93 1013.75 1013.60 1013.23 1012.98 1012.79 1012.58 1012.39 1012.63 1012.78 1013.09 1013.55 1014.11 1014.58
1012.16 1011.88 1011.03 1010.55 1010.55 1010.75 1010.86 1011.63 1011.55 1011.54 1011.82 1012.27 1012.69 1012.76 1013.50 1014.40 1014.86 1015.44 1015.74 1016.00 1016.12 1016.09 1016.11 1016.13 1016.20 1016.24 1016.27 1016.14 1015.83 1015.48 1015.13 1014.83 1014.56 1014.29 1014.01 1013.77 1013.62 1013.39 1013.18 1012.86 1012.62 1012.42 1012.20 1011.99 1012.42 1012.85 1013.26 1013.77 1014.35
1012.80 1012.18 1011.54 1011.04 1010.58 1010.72 1011.54 1011.81 1012.25 1012.18 1011.89 1013.03 1012.95 1012.34 1012.73 1013.57 1014.89 1015.42 1015.67 1015.75 1015.78 1015.92 1015.97 1015.95 1016.00 1015.97 1015.83 1015.63 1015.42 1015.27 1014.94 1014.60 1014.27 1013.98 1013.82 1013.62 1013.45 1013.14 1012.87 1012.62 1012.29 1012.21 1011.80 1011.41 1011.55 1012.33 1013.01 1013.53 1014.07
1013.35 1012.45 1011.11 1011.16 1011.17 1011.10 1012.17 1012.08 1012.58 1012.78 1012.52 1012.86 1012.86 1012.83 1013.42 1014.13 1014.95 1015.23 1015.34 1015.36 1015.41 1015.64 1015.82 1015.82 1015.76 1015.65 1015.58 1015.32 1014.93 1014.85 1014.43 1014.16 1013.80 1013.44 1013.20 1013.11 1012.64 1012.39 1012.26 1011.99 1011.98 1011.86 1011.47 1011.25 1011.04 1011.78 1012.58 1013.33 1014.02
1013.08 1012.33 1011.41 1011.55 1011.77 1011.79 1012.35 1012.33 1012.35 1012.69 1012.41 1012.35 1012.62 1013.05 1013.91 1014.46 1014.63 1014.61 1014.58 1014.52 1014.86 1015.06 1015.40 1015.58 1015.56 1015.52 1015.39 1014.98 1014.62 1014.35 1013.98 1013.64 1013.35 1013.10 1012.97 1012.70 1012.28 1012.03 1012.17 1012.21 1011.95 1011.59 1011.41 1011.19 1010.85 1011.32 1012.19 1013.30 1014.14
1013.26 1012.21 1012.22 1012.15 1012.53 1012.72 1012.66 1012.58 1012.47 1012.17 1011.49 1011.14 1011.23 1011.82 1013.30 1013.94 1014.13 1014.10 1014.12 1014.23 1014.44 1014.88 1015.17 1015.34 1015.46 1015.35 1015.10 1014.73 1014.46 1013.97 1013.61 1013.38 1013.10 1012.86 1012.60 1012.46 1012.14 1011.82 1011.70 1011.44 1011.16 1010.81 1010.70 1010.65 1010.64 1011.23 1012.14 1012.96 1013.94
1013.51 1012.59 1012.80 1012.92 1013.22 1013.29 1012.98 1012.68 1012.25 1011.79 1010.67 1011.21 1011.18 1011.84 1012.66 1013.27 1013.46 1013.64 1013.77 1014.09 1014.45 1014.70 1014.95 1015.23 1015.28 1015.16 1014.80 1014.53 1014.02 1013.74 1013.42 1013.04 1012.68 1012.34 1012.24 1012.04 1011.80 1011.57 1011.42 1011.23 1010.98 1010.66 1010.39 1010.01 1010.02 1011.25 1011.77 1011.98 1013.53
1013.34 1012.94 1013.23 1013.38 1013.59 1013.50 1013.42 1012.89 1012.57 1011.16 1010.94 1011.33 1011.67 1012.19 1012.39 1012.63 1012.94 1013.37 1013.75 1014.15 1014.46 1014.65 1014.78 1015.00 1015.13 1014.92 1014.55 1014.29 1013.85 1013.48 1013.09 1012.64 1012.29 1012.14 1011.93 1011.86 1011.57 1011.35 1011.14 1011.14 1011.00 1010.79 1010.62 1010.05 1010.38 1011.27 1011.14 1013.22 1014.14
1013.43 1013.46 1013.15 1013.34 1013.53 1013.57 1013.49 1012.78 1012.98 1010.62 1010.79 1010.84 1011.45 1011.68 1011.96 1012.22 1012.62 1013.14 1013.61 1013.81 1014.27 1014.58 1014.70 1014.92 1014.86 1014.67 1014.39 1014.06 1013.67 1013.25 1012.77 1012.34 1011.98 1011.73 1011.55 1011.62 1011.61 1011.40 1011.05 1010.90 1010.79 1010.62 1010.62 1010.45 1010.42 1011.37 1012.34 1013.47 1014.26
1013.87 1013.29 1012.89 1013.02 1013.45 1013.55 1013.69 1012.33 1011.22 1010.45 1010.93 1010.75 1010.93 1011.16 1011.56 1011.93 1012.44 1012.68 1013.04 1013.54 1014.09 1014.49 1014.80 1014.81 1014.66 1014.35 1014.13 1013.79 1013.33 1012.84 1012.33 1012.00 1011.65 1011.38 1011.13 1011.22 1011.32 1011.28 1011.09 1010.75 1010.57 1010.30 1010.38 1010.13 1010.32 1011.49 1012.73 1013.58 1014.76
1013.43 1013.28 1012.62 1012.84 1013.28 1013.58 1013.82 1010.62 1009.92 1010.28 1010.39 1010.11 1010.24 1010.57 1011.07 1011.44 1011.99 1012.46 1013.01 1013.60 1014.15 1014.56 1014.77 1014.82 1014.55 1014.18 1013.93 1013.56 1013.09 1012.62 1011.95 1011.54 1011.28 1011.18 1011.12 1011.01 1011.00 1011.04 1010.93 1010.58 1010.36 1010.10 1010.31 1009.75 1010.50 1011.75 1012.95 1013.78 1014.88
1013.06 1012.09 1012.29 1012.32 1013.10 1013.35 1013.21 1010.41 1009.49 1010.04 1009.97 1009.35 1009.40 1009.89 1010.34 1010.90 1011.69 1012.34 1013.04 1013.61 1014.12 1014.51 1014.66 1014.57 1014.35 1013.96 1013.77 1013.37 1012.91 1012.22 1011.58 1011.40 1011.20 1010.89 1010.74 1010.60 1010.59 1010.65 1010.48 1010.33 1010.17 1010.39 1010.36 1009.42 1010.60 1011.83 1012.43 1014.48 1015.05
1011.95 1012.04 1012.22 1012.45 1012.93 1013.01 1012.23 1010.01 1009.13 1008.95 1009.01 1008.44 1008.44 1009.01 1009.68 1010.35 1011.01 1012.01 1012.89 1013.59 1014.11 1014.43 1014.53 1014.44 1014.18 1013.91 1013.74 1013.29 1012.72 1012.06 1011.50 1011.03 1010.61 1010.45 1010.26 1010.24 1010.33 1010.36 1010.03 1010.12 1010.28 1010.55 1010.04 1009.79 1010.84 1011.97 1013.36 1014.19 1015.39
1012.28 1012.42 1012.42 1012.41 1012.86 1012.86 1011.10 1009.63 1008.04 1007.70 1007.80 1007.79 1007.83 1008.21 1009.00 1009.84 1010.79 1012.04 1012.91 1013.56 1014.04 1014.25 1014.31 1014.25 1014.08 1014.05 1013.84 1013.41 1012.88 1012.24 1011.65 1010.88 1010.42 1010.16 1009.97 1009.99 1010.15 1010.16 1009.97 1010.01 1010.26 1010.26 1010.09 1009.66 1011.08 1012.49 1013.15 1014.68 1015.58
1012.94 1012.87 1012.68 1012.54 1013.02 1012.96 1010.94 1008.88 1007.06 1006.99 1007.18 1007.52 1007.84 1008.19 1008.97 1009.81 1011.02 1011.99 1012.85 1013.49 1013.91 1014.10 1014.26 1014.20 1014.13 1014.09 1014.01 1013.73 1013.33 1012.82 1011.99 1011.07 1010.35 1009.99 1009.81 1009.82 1009.95 1010.02 1009.91 1010.13 1010.44 1010.21 1009.53 1010.14 1011.42 1012.54 1013.45 1014.77 1015.19
1013.36 1013.23 1013.29 1013.27 1012.88 1012.76 1011.76 1008.56 1007.24 1007.26 1007.63 1007.91 1008.32 1008.82 1009.38 1009.90 1010.66 1011.74 1012.68 1013.28 1013.71 1013.92 1014.14 1014.16 1014.15 1014.05 1013.84 1013.70 1013.30 1012.55 1011.54 1010.71 1010.20 1009.69 1009.61 1009.79 1009.79 1009.77 1009.82 1009.97 1010.44 1010.51 1010.43 1010.72 1011.50 1012.54 1013.17 1014.08 1015.05
1013.56 1013.50 1013.73 1013.58 1013.16 1012.75 1012.53 1010.39 1008.04 1007.18 1007.16 1007.60 1008.11 1008.66 1009.28 1010.04 1010.74 1011.66 1012.53 1013.18 1013.53 1013.90 1014.14 1014.11 1014.10 1014.04 1013.87 1013.67 1013.29 1012.63 1011.86 1011.11 1010.67 1009.92 1009.54 1009.70 1009.70 1009.63 1009.73 1009.85 1010.42 1010.57 1010.41 1011.11 1012.01 1012.72 1013.27 1013.62 1014.49
1013.76 1013.98 1013.90 1013.79 1013.39 1013.24 1012.58 1012.08 1007.48 1007.28 1006.89 1007.27 1007.99 1008.81 1009.55 1010.24 1010.92 1011.74 1012.51 1013.15 1013.62 1013.93 1014.10 1014.08 1013.98 1013.98 1014.01 1013.70 1013.42 1012.69 1011.82 1011.30 1010.80 1010.32 1009.65 1009.59 1009.81 1009.44 1009.91 1009.97 1009.71 1010.16 1010.82 1011.50 1012.08 1012.88 1013.47 1014.05 1014.17
1014.38 1014.26 1014.19 1014.02 1013.53 1013.12 1012.43 1011.93 1007.76 1006.86 1006.88 1007.25 1008.06 1008.93 1009.79 1010.52 1011.32 1012.06 1012.78 1013.37 1013.61 1013.87 1014.10 1013.97 1013.85 1013.90 1013.94 1013.75 1013.41 1012.76 1012.15 1011.63 1011.19 1010.74 1010.26 1009.89 1009.98 1009.92 1009.83 1010.06 1010.10 1010.51 1011.09 1011.72 1012.34 1012.98 1013.68 1014.08 1014.24
1014.42 1014.13 1013.70 1013.50 1013.17 1012.23 1012.26 1011.53 1007.33 1006.61 1006.85 1007.23 1007.73 1008.82 1009.88 1010.74 1011.42 1012.10 1012.69 1013.13 1013.50 1013.70 1013.94 1013.88 1013.78 1013.78 1013.76 1013.70 1013.50 1012.94 1012.47 1012.09 1011.77 1011.48 1010.97 1010.72 1010.38 1010.39 1010.58 1010.66 1010.77 1010.99 1011.48 1011.92 1012.63 1013.08 1013.71 1014.20 1014.64
1013.99 1013.72 1012.71 1012.40 1012.44 1011.90 1011.99 1009.53 1006.13 1006.30 1006.82 1007.43 1007.97 1008.64 1009.79 1010.69 1011.41 1011.89 1012.38 1012.90 1013.32 1013.57 1013.79 1013.86 1013.74 1013.76 1013.65 1013.63 1013.56 1013.13 1012.74 1012.50 1012.19 1011.98 1011.58 1011.43 1011.27 1011.18 1010.96 1011.04 1011.34 1011.66 1011.98 1012.33 1012.82 1013.28 1013.76 1014.27 1014.87
1014.13 1013.79 1013.15 1012.57 1013.40 1011.89 1009.11 1007.37 1005.54 1006.02 1006.67 1007.27 1007.85 1008.65 1009.28 1010.13 1011.00 1011.57 1012.16 1012.62 1013.03 1013.36 1013.64 1013.88 1013.77 1013.81 1013.70 1013.68 1013.67 1013.33 1012.99 1012.77 1012.46 1012.33 1012.30 1012.02 1011.86 1011.73 1011.67 1011.71 1011.94 1012.18 1012.48 1012.72 1013.10 1013.43 1013.75 1014.17 1014.85
1013.39 1013.11 1013.12 1012.62 1011.82 1010.38 1008.02 1007.06 1005.10 1005.30 1005.69 1006.54 1007.26 1007.94 1008.67 1009.58 1010.54 1011.28 1011.89 1012.40 1012.82 1013.25 1013.54 1013.81 1013.72 1013.71 1013.71 1013.63 1013.63 1013.63 1013.27 1013.01 1012.74 1012.57 1012.62 1012.55 1012.40 1012.24 1012.29 1012.55 1012.74 1012.85 1012.90 1013.10 1013.41 1013.85 1014.31 1014.93 1015.42
1013.38 1012.83 1012.46 1011.74 1010.76 1009.35 1007.85 1005.46 1004.46 1004.69 1005.13 1005.58 1006.18 1007.21 1008.04 1008.95 1009.81 1010.73 1011.53 1012.22 1012.64 1013.06 1013.28 1013.52 1013.54 1013.51 1013.60 1013.60 1013.57 1013.65 1013.50 1013.22 1013.10 1012.96 1012.88 1012.89 1012.67 1012.70 1012.75 1012.85 1013.15 1013.30 1013.51 1013.62 1013.71 1014.11 1014.67 1015.21 1015.88
1012.40 1011.72 1011.38 1010.69 1010.46 1009.54 1008.30 1005.22 1004.53 1004.92 1005.29 1005.64 1005.92 1006.71 1007.64 1008.49 1009.38 1010.29 1011.13 1011.87 1012.33 1012.63 1012.85 1013.12 1013.28 1013.26 1013.42 1013.52 1013.69 1013.83 1013.68 1013.31 1013.38 1013.28 1013.18 1013.30 1013.16 1013.04 1013.22 1013.30 1013.33 1013.56 1013.83 1014.14 1014.29 1014.50 1015.01 1015.35 1016.20
Wind_Speed
5 3 2 4 5 4 4 4 0 6 4 1 1 4 2 3 3 4 6 3 2 3 5 7 12 12 12 12 12 12 12 13 12 13 13 13 12 12 12 13 11 13 15 14 14 15 16 14 16
4 2 3 2 5 7 4 3 8 5 3 5 4 3 3 2 2 6 6 3 3 3 5 7 11 12 12 12 11 11 12 11 12 12 12 13 12 13 14 14 13 13 15 16 16 15 15 15 14
2 2 4 3 3 8 3 4 4 4 5 4 3 3 0 2 4 6 4 5 3 3 5 7 9 10 10 11 11 12 11 11 12 13 12 13 12 13 14 16 16 15 15 16 17 17 17 17 16
2 4 3 6 8 6 4 2 6 7 3 5 3 5 2 1 5 5 7 4 2 2 3 5 9 10 11 11 11 12 12 12 12 12 12 13 12 12 13 13 18 18 17 18 19 17 19 19 18
0 2 4 5 7 4 7 3 8 8 4 6 5 2 2 4 5 6 6 4 1 1 4 4 6 8 9 11 12 12 13 12 13 13 13 13 14 14 13 13 13 19 20 20 19 17 16 19 18
3 2 6 7 7 5 5 6 8 9 6 6 5 4 2 4 9 7 6 4 1 1 1 2 3 6 8 9 10 10 11 12 14 14 14 14 14 14 14 14 15 12 20 21 19 16 18 17 17
2 3 4 4 8 5 3 6 9 7 8 10 1 4 2 10 9 8 7 4 3 2 2 3 4 5 4 7 9 11 13 13 14 15 15 15 15 15 15 15 14 18 16 22 19 17 19 19 18
1 2 3 5 5 4 4 5 1 8 8 3 4 6 4 9 11 8 7 5 4 4 3 4 5 6 7 8 9 11 14 15 16 16 16 15 16 17 15 15 14 16 21 19 21 18 20 20 20
1 5 6 5 5 1 4 5 4 1 6 5 7 4 3 9 11 9 7 7 6 6 5 4 6 7 8 9 8 10 12 14 15 13 13 11 9 11 11 10 12 15 16 20 22 20 21 20 19
4 4 5 1 2 2 4 6 3 5 10 9 10 8 7 11 12 11 10 7 7 6 4 4 6 8 9 8 10 10 11 9 10 9 10 8 9 9 9 12 15 15 16 16 17 20 21 15 9
4 5 1 2 5 3 4 5 5 8 11 14 13 12 14 13 12 11 9 7 5 3 4 6 6 7 9 8 7 6 6 7 7 9 8 8 7 6 6 6 7 7 9 8 11 14 10 12 7
6 5 4 2 2 3 5 3 6 15 11 1 6 3 14 15 14 12 9 7 6 4 5 5 7 8 9 7 8 9 8 7 7 7 9 6 5 6 6 5 7 6 5 8 10 7 12 11 12
6 3 4 5 4 6 5 12 13 17 16 10 4 8 13 14 13 9 6 5 4 5 5 6 7 9 9 10 9 9 8 7 8 8 8 7 7 6 6 6 6 5 4 7 8 10 11 10 12
0 5 6 4 5 6 6 8 2 4 3 12 13 12 12 13 12 9 8 7 6 4 5 7 8 9 10 11 12 9 8 8 7 7 7 8 7 7 6 6 6 6 6 7 10 11 11 7 8
1 6 5 7 3 4 1 12 16 13 5 7 11 12 12 11 10 11 6 6 3 3 5 7 9 10 11 13 11 9 8 8 8 8 8 8 7 7 8 6 6 6 4 6 12 12 9 11 9
3 2 5 4 4 2 3 9 5 3 8 10 10 10 12 13 12 9 6 5 3 3 5 7 8 11 12 11 9 8 8 8 7 7 6 8 7 7 8 6 6 4 4 7 11 13 11 10 9
4 5 5 2 5 1 8 12 3 5 7 9 9 11 11 11 10 8 7 5 3 2 5 7 10 12 12 11 9 10 10 7 7 7 6 7 6 6 7 5 5 4 4 10 11 11 15 9 10
5 4 3 6 3 6 12 25 22 17 17 18 15 13 12 12 12 8 8 6 2 2 5 7 8 11 12 9 9 8 8 7 6 6 5 5 4 5 5 4 3 2 6 12 12 15 12 12 11
1 3 8 5 0 6 12 20 24 18 17 18 17 15 15 13 9 8 8 6 3 0 5 7 10 10 8 8 8 7 8 8 6 5 5 4 3 4 5 3 1 3 3 13 15 15 16 11 14
3 4 7 6 1 4 13 26 23 10 6 7 8 9 12 12 11 10 9 6 3 2 5 7 8 8 7 6 7 5 7 7 7 5 4 0 1 3 4 3 2 4 1 16 17 16 12 11 10
5 5 3 5 8 2 12 10 5 1 3 5 6 5 4 11 14 12 10 7 4 1 5 7 7 7 8 9 7 7 6 4 4 4 2 2 2 2 4 5 3 2 1 11 14 14 18 12 7
5 5 3 2 4 5 6 9 8 3 8 5 4 4 3 9 12 12 11 8 4 1 3 5 6 7 7 9 7 8 4 4 4 6 4 3 3 4 6 7 8 7 1 11 11 10 11 10 13
0 4 3 1 1 4 3 4 8 2 4 3 3 3 5 9 12 12 10 7 5 1 3 4 5 5 7 7 6 6 6 5 5 4 4 5 4 4 5 3 3 6 7 11 13 13 10 8 10
10 4 2 1 2 4 2 3 7 3 3 1 3 4 7 10 10 10 8 6 5 2 2 3 5 5 6 7 6 6 7 8 7 8 5 5 3 2 2 3 8 13 11 10 10 11 11 9 6
3 4 2 3 3 3 2 4 12 5 4 2 7 8 9 10 10 10 10 7 5 4 2 2 4 4 5 6 6 5 6 6 6 6 5 6 5 5 7 7 6 7 10 12 10 9 9 9 8
10 4 4 6 3 2 1 8 5 1 1 3 2 7 9 10 9 10 9 8 6 4 3 2 3 4 5 5 6 4 5 3 3 5 4 5 4 4 8 8 6 7 8 11 11 9 8 8 6
8 8 2 3 2 3 5 8 12 7 5 6 8 7 12 12 12 11 10 8 7 6 4 2 2 2 2 4 4 3 3 3 4 5 4 4 5 5 6 6 6 7 6 8 10 8 11 10 8
4 6 4 2 5 6 4 6 8 3 9 10 10 13 12 12 12 11 10 9 7 6 5 4 3 0 1 3 3 2 3 1 3 4 4 5 4 6 7 7 7 6 6 6 5 5 8 8 7
7 6 3 2 4 3 2 4 2 3 3 7 13 11 12 13 13 12 10 9 8 6 6 5 4 3 1 0 2 4 2 3 3 3 3 3 5 5 7 7 6 7 6 5 7 6 8 9 8
4 8 10 6 6 3 1 5 3 3 1 2 7 9 9 10 11 11 11 10 9 9 7 7 5 4 2 2 0 3 2 3 3 3 4 3 4 5 6 5 7 7 7 5 7 8 8 12 10
Wind_Direction
274 274 237 223 234 252 230 206 201 173 193 175 142 235 238 8 246 320 131 51 28 39 24 34 22 20 17 14 10 5 2 356 350 349 344 294 259 250 240 237 225 199 195 193 192 184 181 179 168
269 226 215 189 248 244 220 170 209 181 104 121 142 165 202 192 120 133 173 75 84 47 28 27 13 9 4 359 355 351 350 347 342 341 337 336 310 261 251 248 233 220 206 197 192 182 169 161 158
223 276 240 232 237 249 272 180 194 142 148 193 205 286 235 140 157 153 101 119 121 58 19 26 9 1 354 349 345 340 334 328 328 325 331 316 318 326 272 253 244 234 222 209 196 188 174 167 162
218 176 145 246 235 250 283 142 169 160 169 213 264 230 193 317 159 158 132 146 150 51 10 28 6 360 355 348 340 335 331 328 324 321 320 316 307 296 301 287 251 237 226 222 201 193 179 171 165
218 230 217 238 244 249 232 219 186 203 176 175 189 210 233 192 146 151 150 163 179 23 12 12 20 15 4 353 343 335 328 327 326 318 313 309 306 306 292 282 295 245 236 228 213 198 181 175 172
161 279 234 236 241 240 240 208 197 215 203 150 214 226 209 149 176 166 166 170 127 6 349 4 46 8 356 349 343 335 326 318 315 313 306 301 297 297 299 290 269 283 237 229 222 209 187 172 162
219 217 266 271 262 265 224 171 213 218 211 215 156 232 104 191 188 170 178 174 182 195 247 323 335 334 291 321 324 328 325 317 313 309 301 297 292 290 288 288 275 262 268 225 221 209 189 167 153
180 253 235 228 242 259 161 179 272 226 226 93 195 228 198 190 172 174 185 196 207 205 258 294 300 305 319 322 320 317 307 305 305 301 295 290 290 279 273 277 262 255 248 250 212 201 186 167 152
182 237 243 250 198 153 165 212 171 333 230 205 202 244 79 145 163 186 198 216 223 222 243 282 305 318 319 315 315 301 296 298 295 288 288 283 272 282 278 269 291 274 267 258 212 195 182 161 149
223 241 242 312 245 253 204 227 218 224 212 228 228 205 163 170 186 200 208 219 216 228 253 301 313 315 316 311 315 309 305 300 295 289 294 295 281 277 294 288 279 271 267 274 238 191 164 142 144
183 246 309 251 245 254 261 248 224 239 237 236 224 212 188 192 203 211 219 231 234 249 278 307 310 314 313 317 316 304 301 297 293 285 280 281 282 275 271 275 266 259 232 242 235 173 165 141 130
234 243 243 300 226 215 246 293 254 234 249 294 223 194 187 201 206 211 218 221 224 252 290 297 311 309 314 315 312 311 300 294 280 276 281 272 266 271 272 272 275 267 261 247 187 149 132 113 112
237 244 220 249 254 255 277 257 265 263 250 236 185 194 201 207 209 213 216 216 230 259 284 306 314 313 320 318 313 305 295 283 285 282 278 270 265 263 274 266 270 261 290 254 145 138 120 141 143
334 259 263 270 257 249 260 267 261 246 320 232 223 219 212 209 208 204 205 219 222 257 291 322 312 319 321 315 308 301 291 290 285 279 280 281 270 270 271 270 260 248 248 274 150 140 122 125 128
290 291 273 230 239 256 325 260 231 251 230 227 218 223 217 213 208 216 204 215 230 269 321 316 321 325 323 314 310 298 292 293 287 292 288 281 266 263 269 271 259 249 242 228 140 132 122 124 136
254 259 273 135 170 160 227 277 188 203 215 234 222 214 216 215 217 216 207 213 209 287 316 317 325 322 325 315 309 304 301 300 296 285 278 267 262 254 263 262 254 253 273 171 144 139 121 117 138
210 268 236 268 198 257 221 284 240 191 220 246 227 216 216 213 212 211 202 192 196 297 319 328 329 332 331 323 318 309 306 306 292 289 276 267 250 243 253 248 254 258 276 142 134 132 122 131 134
194 233 230 260 144 228 255 263 272 265 256 260 252 231 217 211 212 193 184 167 179 301 326 333 334 340 333 327 315 312 314 304 289 281 277 283 242 238 248 238 243 304 290 133 128 125 130 127 112
138 245 268 258 94 277 266 280 282 280 260 257 258 242 230 211 191 169 165 164 186 235 341 342 343 347 339 330 329 326 316 319 316 296 290 271 223 228 238 232 12 256 304 125 127 131 133 130 128
201 262 265 277 222 277 301 292 290 300 270 258 266 247 236 210 176 160 165 167 164 344 349 349 350 344 330 322 321 299 299 300 302 290 289 214 198 219 206 170 76 321 162 121 135 148 136 137 153
217 226 228 273 314 219 305 279 306 146 272 253 242 260 224 206 183 165 167 170 155 22 6 356 346 336 328 329 319 310 306 302 320 352 63 82 168 199 164 151 152 230 40 132 137 144 149 147 133
236 203 203 261 318 299 1 289 301 319 294 249 236 218 179 181 181 161 162 163 154 91 2 358 347 343 330 328 328 324 319 338 320 339 87 102 183 177 164 172 172 184 67 134 145 147 153 146 146
94 143 138 131 278 308 158 246 270 329 288 229 194 152 149 165 162 160 161 152 144 126 351 352 352 353 335 331 334 319 340 351 335 1 37 80 101 160 161 167 287 175 139 139 149 153 155 165 148
138 115 95 130 236 246 84 260 280 235 247 191 153 147 147 153 155 151 143 150 150 149 296 2 9 4 342 336 335 338 1 12 10 356 10 103 91 67 353 143 106 135 132 139 148 156 151 162 107
187 179 243 237 202 261 123 221 257 262 239 262 176 165 158 158 161 164 168 173 169 180 276 353 2 353 340 340 334 5 4 15 19 4 359 28 99 108 96 98 105 115 128 138 139 145 144 162 149
184 241 219 248 231 42 128 232 252 201 232 165 107 174 166 174 179 183 179 176 177 188 224 293 2 354 348 345 336 31 18 9 24 26 14 37 46 35 119 116 118 116 133 158 160 156 149 143 140
157 212 19 102 82 278 219 255 269 218 220 207 209 182 191 191 190 192 185 185 184 193 200 273 351 22 345 328 335 25 43 18 33 35 60 49 31 35 43 100 92 100 131 159 161 163 156 153 147
238 147 145 226 214 232 207 274 250 200 210 204 208 209 199 195 193 194 192 189 189 197 191 222 241 249 314 323 323 322 89 32 50 42 54 91 71 82 77 77 82 87 88 90 99 125 158 148 141
159 192 215 261 231 227 259 235 210 206 190 215 211 206 200 198 197 194 193 192 193 198 198 209 224 200 167 10 325 295 125 130 92 79 53 43 103 110 111 118 122 125 115 105 111 113 125 126 119
233 199 195 211 190 237 8 275 153 243 219 231 214 196 197 203 197 194 192 189 194 203 197 208 211 206 173 136 55 294 267 126 121 112 104 71 90 91 103 106 124 126 114 124 128 122 140 137 133